sat.trackr.live / text

‹ back to catalog

STARLINK-37520

NORAD 69819 · 2026-154A

PAYLOAD ACTIVE UNKNOWN

§ Identity

Operator
Country
US
Launch date
2026-07-05
Launch site
AFETR
Launch vehicle
Mass (kg)
RCS (m²)

Purposes: comms

External: N2YO · Heavens-Above · Gunter

§ Orbital elements

Epoch: 2026-09-19T21:28:52.231008Z

Period
93.85 min
Inclination
53.1550°
Eccentricity
0.0001339
Mean motion
15.34399955 rev/d
Perigee alt
461.8 km
Apogee alt
463.6 km
Semi-major
6,840.8 km
B*
3.7853e-4
RAAN
334.6584°
Arg perigee
79.5837°
Mean anomaly
280.5316°
Rev number
1,314

§ Raw data

STARLINK-375201 69819U 26154A   26262.89504897  .00012434  00000+0  37853-3 0  99912 69819  53.1550 334.6584 0001339  79.5837 280.5316 15.34399955 13149

JSON: /api/v1/satellites/69819 · /tle

For live sub-satellite position, see the globe view (requires WebGL).

§ Visibility from observer

Set your observer location to see the next 7 days of passes ≥ 10°. The values pass through the URL so the page stays shareable.

No JS? Fill the form by hand. The geolocation button needs JavaScript.